SPACEBEE-64 (48627 NORAD) Tracking and Keplerian Element Data

This shows tracking and keplerian element data for the satellite.

Feedback or suggestion? Click here.




ElementValue
Catalog48627
NameSPACEBEE-64
Epoch Orbit4002
Epoch Day287.1248615
Epoch Year2021
RAAN341.5039
Inclination97.2447
Eccentricity0.0016184
Argument of Perigee44.9307
Mean Anonmoly315.3232
Mean Motion15.15619848
Decay Rate6.904E-05
L11 48627U 21006ET 21287.12486150 .00006904 00000-0 36546-3 0 9999
L22 48627 97.2447 341.5039 0016184 44.9307 315.3232 15.15619848 40027

Live tracking and technical data element details for SPACEBEE-64 (NORAD 48627). SPACEBEE-64 can be tracked NOW for your location showing map with azimuth and elevation plus other details from your city location.

Track the satellite on the map from your city or location and see movement details for azimuth, elevation, latitude, longitude, range, height, and movement on the map or in text.







IsCatalogInMostPopularTable: catalog: 48627, numindb: 40
Update: records affected: 1



GetName: 48627 SPACEBEE-64

Hit Count: updated at: Tue, 19 Oct 2021 09:24:47 GMT